National Weather Service Raw Text Product

Displaying AFOS PIL: RWRIA Received: 2018-02-14 06:00 UTC


671 
ASUS43 KDMX 140606
RWRIA 

WEATHER ROUNDUP FOR IOWA
NATIONAL WEATHER SERVICE DES MOINES IA
1200 AM CST WED FEB 14 2018

NOTE: "FAIR" INDICATES FEW OR NO CLOUDS BELOW 12,000 FEET WITH NO
SIGNIFICANT WEATHER AND/OR OBSTRUCTIONS TO VISIBILITY.

* - THESE STATIONS ARE NOT NWS STATIONS...THUS NOT UNDER NWS
QUALITY CONTROL.  THEY ALSO DO NOT REPORT WEATHER SUCH 
AS PRECIPITATION OR FOG.  

IAZ001>003-012>014-020>022-031>034-043>046-140700-
   NORTHWEST IOWA
  
CITY           SKY/WX    TMP DP  RH WIND       PRES   REMARKS
CARROLL *      CLOUDY    30  27  86 SW13      30.08F WCI  20          
CHEROKEE *     CLOUDY    26  22  86 S7        30.05F WCI  18          
DENISON *      CLEAR     28  27  93 CALM      30.10F                  
LE MARS *      CLEAR     23  19  86 S8        30.04F WCI  14          
ORANGE CITY *  CLEAR     21  19  93 S3        30.03F                  
SHELDON *      CLOUDY    23  23 100 S10       30.01F WCI  12          
SIOUX CITY     CLOUDY    20  18  92 E8        30.05F WCI  10          
6HR MIN TEMP:  18; 6HR MAX TEMP:  32;                                

SPENCER        CLOUDY    24  19  81 SW7       30.04F WCI  16          
6HR MIN TEMP:  16; 6HR MAX TEMP:  26;                                

STORM LAKE *   CLOUDY    28  23  80 SW13      30.04F WCI  18          
$$
 
IAZ055>058-069>071-079>083-090>094-140700-
   SOUTHWEST IOWA
  
CITY           SKY/WX    TMP DP  RH WIND       PRES   REMARKS
ATLANTIC *     CLOUDY    19  19 100 CALM      30.12S                  
AUDUBON *      CLOUDY    30  28  93 CALM      30.11S                  
CLARINDA *     CLEAR     30  28  93 S6        30.17F WCI  24          
COUNCIL BLFS * CLOUDY    30  30 100 S7        30.11S WCI  23          
CRESTON *      CLEAR     34  27  75 S14       30.14S WCI  24          
HARLAN  *      CLEAR     23  23 100 S5        30.14F WCI  17          
LAMONI         CLEAR     32  24  72 S9        30.16F WCI  24          
6HR MIN TEMP:  32; 6HR MAX TEMP:  41;                                

RED OAK *      CLOUDY    32  27  80 S6        30.13F WCI  26          
SHENANDOAH *   CLEAR     36  28  75 S7        30.14F WCI  30          
$$
 
IAZ047>049-059>061-072>074-084-140700-
   CENTRAL IOWA
  
CITY           SKY/WX    TMP DP  RH WIND       PRES   REMARKS
AMES           CLOUDY    18  15  88 CALM      30.12F                  
6HR MIN TEMP:  13; 6HR MAX TEMP:  31;                                

ANKENY *       CLOUDY    28  21  74 S5        30.14F WCI  23          
BOONE *        PTCLDY    32  23  69 SW9       30.09F WCI  24          
CHARITON *     CLEAR     32  25  74 S12       30.15F WCI  23          
DES MOINES     CLOUDY    31  22  69 S12       30.13F WCI  22          
6HR MIN TEMP:  30; 6HR MAX TEMP:  36;                                

GRINNELL*      CLOUDY    30  23  74 S10       30.15F WCI  21          
KNOXVILLE *    CLOUDY    34  23  64 S12       30.13F WCI  25          
MARSHALLTOWN   CLEAR     30  22  72 S13       30.11F WCI  20          
6HR MIN TEMP:  23; 6HR MAX TEMP:  30;                                

NEWTON *       CLOUDY    28  23  80 S12       30.14F WCI  18          
PELLA *        CLOUDY    34  25  68 S8        30.16F WCI  28          
PERRY *        FAIR      18  17  95 S7        30.11F WCI   8          
$$
 
IAZ004>006-015-016-023>025-035-036-140700-
   NORTH CENTRAL IOWA
  
CITY           SKY/WX    TMP DP  RH WIND       PRES   REMARKS
ALGONA *       CLOUDY    18 N/A N/A S12       30.05F WCI   5          
CLARION *      CLOUDY    18  19 100 S12       30.07F WCI   5          
ESTHERVILLE    CLOUDY    13  12  96 S8        30.02F FOG     WCI   2  
6HR MIN TEMP:  12; 6HR MAX TEMP:  24;                                

FORT DODGE *   CLOUDY    29  24  82 SW13      30.08F WCI  19          
MASON CITY     CLOUDY    13  10  88 S5        30.08F FOG     WCI   5  
6HR MIN TEMP:  12; 6HR MAX TEMP:  20;                                

FOREST CITY *  FAIR      21  19  93 S3        30.06F                  
WEBSTER CITY * CLOUDY    21  19  93 S12       30.07F WCI   9          
IOWA FALLS *   FAIR      19  16  88 S6        30.11F WCI  11          
$$

IAZ007>011-017>019-026>030-037>042-050>054-066-140700-
   NORTHEAST IOWA
  
CITY           SKY/WX    TMP DP  RH WIND       PRES   REMARKS
CEDAR RAPIDS   FAIR      26  20  77 S9        30.15F WCI  17          
6HR MIN TEMP:  25; 6HR MAX TEMP:  29;                                

CHARLES CITY * FAIR      21  21 100 S10       30.10F WCI  10          
CLINTON *      FAIR      24  21  88 S7        30.20F WCI  16          
DECORAH *      FAIR      27  21  80 S10       30.07F WCI  17          
DUBUQUE        FAIR      20  16  84 S12       30.14F FOG     WCI   8  
6HR MIN TEMP:  16; 6HR MAX TEMP:  25;                                

MONTICELLO *   FAIR      23  19  86 S7        30.16F WCI  15          
OELWEIN *      FAIR      19  19 100 S12       30.12F WCI   7          
WATERLOO       FAIR      22  19  89 S8        30.12F WCI  12          
6HR MIN TEMP:  21; 6HR MAX TEMP:  26;                                

$$
 
IAZ064-065-067-068-078-140700-
   EAST CENTRAL IOWA
  
CITY           SKY/WX    TMP DP  RH WIND       PRES   REMARKS
DAVENPORT      FAIR      32  24  72 S9        30.21F WCI  24          
6HR MIN TEMP:  27; 6HR MAX TEMP:  32;                                

IOWA CITY      FOG       16  12  84 CALM      30.20F VSB 1/2          
6HR MIN TEMP:  15; 6HR MAX TEMP:  27;                                

MT. PLEASANT * CLOUDY    30  23  74 S9        30.21F WCI  22          
MUSCATINE *    FOG       16  14  93 CALM      30.22F VSB<1/4          
QUAD CITIES    FAIR      32  25  75 SW8       30.20F WCI  25          
6HR MIN TEMP:  23; 6HR MAX TEMP:  32;                                

$$
 
IAZ062-063-075>077-085>089-095>099-140700-
   SOUTHEAST IOWA
  
CITY           SKY/WX    TMP DP  RH WIND       PRES   REMARKS
BURLINGTON     CLOUDY    30  24  78 S8        30.22F WCI  22          
6HR MIN TEMP:  28; 6HR MAX TEMP:  34;                                

FAIRFIELD *    CLOUDY    30  23  74 S10       30.18F WCI  21          
FORT MADISON * CLOUDY    32  27  80 S7        30.22F WCI  26          
KEOKUK *       CLOUDY    34  27  75 S7        30.22F WCI  28          
OSKALOOSA *    FAIR      26  21  80 S12       30.17F WCI  16          
OTTUMWA        CLOUDY    29  21  72 S9        30.16F WCI  20          
6HR MIN TEMP:  27; 6HR MAX TEMP:  34;                                

WASHINGTON *   CLOUDY    28  25  86 S12       30.20F WCI  18          
$$

ABBREVIATIONS USED IN REMARKS
   TC - TEMPERATURES IN CELSIUS
  WCI - WIND CHILL INDEX
   HX - HEAT INDEX
  VSB - VISIBILITY  
$$

  

497 
ASUS43 KDMX 140601
RWRIA 

WEATHER ROUNDUP FOR IOWA
NATIONAL WEATHER SERVICE DES MOINES IA
1200 AM CST WED FEB 14 2018

NOTE: "FAIR" INDICATES FEW OR NO CLOUDS BELOW 12,000 FEET WITH NO
SIGNIFICANT WEATHER AND/OR OBSTRUCTIONS TO VISIBILITY.

* - THESE STATIONS ARE NOT NWS STATIONS...THUS NOT UNDER NWS
QUALITY CONTROL.  THEY ALSO DO NOT REPORT WEATHER SUCH 
AS PRECIPITATION OR FOG.  

IAZ001>003-012>014-020>022-031>034-043>046-140700-
   NORTHWEST IOWA
  
CITY           SKY/WX    TMP DP  RH WIND       PRES   REMARKS
CARROLL *      CLOUDY    30  27  86 SW13      30.08F WCI  20          
CHEROKEE *     CLOUDY    26  22  86 S7        30.05F WCI  18          
DENISON *      CLEAR     28  27  93 CALM      30.10F                  
LE MARS *      CLEAR     23  19  86 S8        30.04F WCI  14          
ORANGE CITY *  CLEAR     21  19  93 S3        30.03F                  
SHELDON *      CLOUDY    23  23 100 S10       30.01F WCI  12          
SIOUX CITY     CLOUDY    20  18  92 E8        30.05F WCI  10          
6HR MIN TEMP:  18; 6HR MAX TEMP:  32;                                

SPENCER        CLOUDY    24  19  81 SW7       30.04F WCI  16          
6HR MIN TEMP:  16; 6HR MAX TEMP:  26;                                

STORM LAKE *   CLOUDY    28  23  80 SW13      30.04F WCI  18          
$$
 
IAZ055>058-069>071-079>083-090>094-140700-
   SOUTHWEST IOWA
  
CITY           SKY/WX    TMP DP  RH WIND       PRES   REMARKS
ATLANTIC *     CLOUDY    19  19 100 CALM      30.12S                  
AUDUBON *      CLOUDY    30  28  93 CALM      30.11S                  
CLARINDA *     CLEAR     30  28  93 S6        30.17F WCI  24          
COUNCIL BLFS * CLOUDY    30  30 100 S7        30.11S WCI  23          
CRESTON *      CLEAR     34  27  75 S14       30.14S WCI  24          
HARLAN  *      CLEAR     23  23 100 S5        30.14F WCI  17          
LAMONI         CLEAR     32  24  72 S9        30.16F WCI  24          
6HR MIN TEMP:  32; 6HR MAX TEMP:  41;                                

RED OAK *      CLOUDY    32  27  80 S6        30.13F WCI  26          
SHENANDOAH *   CLEAR     36  28  75 S7        30.14F WCI  30          
$$
 
IAZ047>049-059>061-072>074-084-140700-
   CENTRAL IOWA
  
CITY           SKY/WX    TMP DP  RH WIND       PRES   REMARKS
AMES           CLOUDY    18  15  88 CALM      30.12F                  
6HR MIN TEMP:  13; 6HR MAX TEMP:  31;                                

ANKENY *       CLOUDY    28  21  74 S5        30.14F WCI  23          
BOONE *        PTCLDY    32  23  69 SW9       30.09F WCI  24          
CHARITON *     CLEAR     32  25  74 S12       30.15F WCI  23          
DES MOINES     CLOUDY    31  22  69 S12       30.13F WCI  22          
6HR MIN TEMP:  30; 6HR MAX TEMP:  36;                                

GRINNELL*      CLOUDY    30  23  74 S10       30.15F WCI  21          
KNOXVILLE *    CLOUDY    34  23  64 S12       30.13F WCI  25          
MARSHALLTOWN   CLEAR     30  22  72 S13       30.11F WCI  20          
6HR MIN TEMP:  23; 6HR MAX TEMP:  30;                                

NEWTON *       CLOUDY    28  23  80 S12       30.14F WCI  18          
PELLA *        CLOUDY    34  25  68 S8        30.16F WCI  28          
$$
 
IAZ004>006-015-016-023>025-035-036-140700-
   NORTH CENTRAL IOWA
  
CITY           SKY/WX    TMP DP  RH WIND       PRES   REMARKS
CLARION *      CLOUDY    18  19 100 S12       30.07F WCI   5          
ESTHERVILLE    CLOUDY    13  12  96 S8        30.02F FOG     WCI   2  
6HR MIN TEMP:  12; 6HR MAX TEMP:  24;                                

FORT DODGE *   CLOUDY    29  24  82 SW13      30.08F WCI  19          
MASON CITY     CLOUDY    13  10  88 S5        30.08F FOG     WCI   5  
6HR MIN TEMP:  12; 6HR MAX TEMP:  20;                                

FOREST CITY *  FAIR      21  19  93 S3        30.06F                  
WEBSTER CITY * CLOUDY    21  19  93 S12       30.07F WCI   9          
IOWA FALLS *   FAIR      19  16  88 S6        30.11F WCI  11          
$$

IAZ007>011-017>019-026>030-037>042-050>054-066-140700-
   NORTHEAST IOWA
  
CITY           SKY/WX    TMP DP  RH WIND       PRES   REMARKS
CEDAR RAPIDS   FAIR      26  20  77 S9        30.15F WCI  17          
6HR MIN TEMP:  25; 6HR MAX TEMP:  29;                                

CHARLES CITY * FAIR      21  21 100 S10       30.10F WCI  10          
CLINTON *      FAIR      24  21  88 S7        30.20F WCI  16          
DECORAH *      FAIR      27  21  80 S10       30.07F WCI  17          
DUBUQUE        FAIR      20  16  84 S12       30.14F FOG     WCI   8  
6HR MIN TEMP:  16; 6HR MAX TEMP:  25;                                

MONTICELLO *   FAIR      23  19  86 S7        30.16F WCI  15          
OELWEIN *      FAIR      19  19 100 S12       30.12F WCI   7          
WATERLOO       FAIR      22  19  89 S8        30.12F WCI  12          
6HR MIN TEMP:  21; 6HR MAX TEMP:  26;                                

$$
 
IAZ064-065-067-068-078-140700-
   EAST CENTRAL IOWA
  
CITY           SKY/WX    TMP DP  RH WIND       PRES   REMARKS
DAVENPORT      FAIR      32  24  72 S9        30.21F WCI  24          
6HR MIN TEMP:  27; 6HR MAX TEMP:  32;                                

IOWA CITY      FOG       16  12  84 CALM      30.20F VSB 1/2          
6HR MIN TEMP:  15; 6HR MAX TEMP:  27;                                

MT. PLEASANT * CLOUDY    30  23  74 S9        30.21F WCI  22          
MUSCATINE *    FOG       16  14  93 CALM      30.22F VSB<1/4          
QUAD CITIES    FAIR      32  25  75 SW8       30.20F WCI  25          
6HR MIN TEMP:  23; 6HR MAX TEMP:  32;                                

$$
 
IAZ062-063-075>077-085>089-095>099-140700-
   SOUTHEAST IOWA
  
CITY           SKY/WX    TMP DP  RH WIND       PRES   REMARKS
BURLINGTON     CLOUDY    30  24  78 S8        30.22F WCI  22          
6HR MIN TEMP:  28; 6HR MAX TEMP:  34;                                

FAIRFIELD *    CLOUDY    30  23  74 S10       30.18F WCI  21          
FORT MADISON * CLOUDY    32  27  80 S7        30.22F WCI  26          
KEOKUK *       CLOUDY    34  27  75 S7        30.22F WCI  28          
OSKALOOSA *    FAIR      26  21  80 S12       30.17F WCI  16          
OTTUMWA        CLOUDY    29  21  72 S9        30.16F WCI  20          
6HR MIN TEMP:  27; 6HR MAX TEMP:  34;                                

WASHINGTON *   CLOUDY    28  25  86 S12       30.20F WCI  18          
$$

ABBREVIATIONS USED IN REMARKS
   TC - TEMPERATURES IN CELSIUS
  WCI - WIND CHILL INDEX
   HX - HEAT INDEX
  VSB - VISIBILITY  
$$